| time (UTC) | temp F | wind direction | speed MPH | gust MPH | rain 1hr in | rain 24hr in | rain mn in | humidity % | barometer mb |
| 20260901134014 | 71 | 63 | 0.0 | 6.0 | 0.00 | 0.52 | 0.00 | 86 | 1017.6 |
| 20260901133519 | 71 | 65 | 1.0 | 6.0 | 0.00 | 0.52 | 0.00 | 86 | 1017.5 |
| 20260901133025 | 71 | 62 | 1.0 | 3.0 | 0.00 | 0.52 | 0.00 | 86 | 1017.5 |
| 20260901132517 | 71 | 81 | 0.0 | 4.0 | 0.00 | 0.52 | 0.00 | 86 | 1017.4 |
| 20260901132018 | 71 | 80 | 0.0 | 4.0 | 0.00 | 0.52 | 0.00 | 86 | 1017.4 |
| 20260901131525 | 71 | 71 | 0.0 | 0.0 | 0.00 | 0.52 | 0.00 | 86 | 1017.4 |
| 20260901131018 | 71 | 71 | 0.0 | 1.0 | 0.00 | 0.52 | 0.00 | 86 | 1017.3 |
| 20260901130519 | 71 | 71 | 0.0 | 1.0 | 0.00 | 0.52 | 0.00 | 85 | 1017.3 |
| 20260901130029 | 71 | 71 | 0.0 | 1.0 | 0.00 | 0.52 | 0.00 | 85 | 1017.2 |
| 20260901125515 | 71 | 71 | 0.0 | 1.0 | 0.00 | 0.52 | 0.00 | 85 | 1017.1 |
| 20260901125014 | 71 | 71 | 0.0 | 0.0 | 0.00 | 0.54 | 0.00 | 84 | 1017.0 |
| 20260901124535 | 71 | 71 | 0.0 | 1.0 | 0.00 | 0.54 | 0.00 | 84 | 1016.8 |
| 20260901124019 | 71 | 71 | 0.0 | 3.0 | 0.00 | 0.54 | 0.00 | 84 | 1016.6 |
| 20260901123515 | 71 | 71 | 0.0 | 3.0 | 0.00 | 0.54 | 0.00 | 84 | 1016.6 |
| 20260901123035 | 71 | 69 | 0.0 | 5.0 | 0.00 | 0.54 | 0.00 | 84 | 1016.7 |
| 20260901122508 | 71 | 70 | 0.0 | 5.0 | 0.00 | 0.54 | 0.00 | 84 | 1016.5 |
| 20260901122004 | 71 | 71 | 1.0 | 3.0 | 0.00 | 0.54 | 0.00 | 84 | 1016.5 |
| 20260901121533 | 71 | 71 | 0.0 | 3.0 | 0.00 | 0.54 | 0.00 | 84 | 1016.5 |
| 20260901121008 | 71 | 69 | 0.0 | 3.0 | 0.00 | 0.55 | 0.00 | 84 | 1016.6 |
| 20260901120516 | 71 | 65 | 0.0 | 3.0 | 0.00 | 0.57 | 0.00 | 84 | 1016.5 |
| 20260901120025 | 71 | 61 | 0.0 | 4.0 | 0.00 | 0.57 | 0.00 | 84 | 1016.5 |
| 20260901115507 | 71 | 61 | 0.0 | 4.0 | 0.00 | 0.58 | 0.00 | 84 | 1016.4 |
| 20260901115015 | 71 | 61 | 0.0 | 3.0 | 0.00 | 0.58 | 0.00 | 84 | 1016.4 |
| 20260901114527 | 71 | 62 | 0.0 | 2.0 | 0.00 | 0.60 | 0.00 | 84 | 1016.4 |
| 20260901114004 | 71 | 63 | 0.0 | 1.0 | 0.00 | 0.61 | 0.00 | 84 | 1016.4 |
| 20260901113516 | 71 | 63 | 0.0 | 0.0 | 0.00 | 0.64 | 0.00 | 84 | 1016.4 |
| 20260901113026 | 71 | 63 | 0.0 | 2.0 | 0.00 | 0.65 | 0.00 | 84 | 1016.5 |
| 20260901112507 | 71 | 63 | 0.0 | 2.0 | 0.00 | 0.66 | 0.00 | 84 | 1016.5 |
| 20260901112016 | 71 | 63 | 0.0 | 2.0 | 0.00 | 0.67 | 0.00 | 83 | 1016.5 |
| 20260901111526 | 72 | 63 | 0.0 | 3.0 | 0.00 | 0.67 | 0.00 | 83 | 1016.5 |
| 20260901111011 | 72 | 63 | 0.0 | 4.0 | 0.00 | 0.67 | 0.00 | 83 | 1016.5 |
| 20260901110518 | 72 | 63 | 0.0 | 4.0 | 0.00 | 0.67 | 0.00 | 83 | 1016.4 |
| 20260901110033 | 72 | 63 | 0.0 | 3.0 | 0.00 | 0.67 | 0.00 | 83 | 1016.5 |
| 20260901105505 | 72 | 58 | 0.0 | 3.0 | 0.00 | 0.67 | 0.00 | 82 | 1016.5 |
| 20260901105012 | 72 | 58 | 0.0 | 2.0 | 0.00 | 0.67 | 0.00 | 82 | 1016.5 |
| 20260901104528 | 72 | 57 | 0.0 | 0.0 | 0.00 | 0.67 | 0.00 | 82 | 1016.4 |
| 20260901104008 | 72 | 56 | 0.0 | 0.0 | 0.00 | 0.67 | 0.00 | 82 | 1016.4 |
| 20260901103518 | 72 | 56 | 0.0 | 0.0 | 0.00 | 0.67 | 0.00 | 82 | 1016.5 |
| 20260901103028 | 72 | 55 | 0.0 | 1.0 | 0.00 | 0.67 | 0.00 | 82 | 1016.4 |
| 20260901102509 | 72 | 53 | 0.0 | 3.0 | 0.00 | 0.67 | 0.00 | 81 | 1016.4 |
| 20260901102014 | 72 | 53 | 0.0 | 3.0 | 0.00 | 0.67 | 0.00 | 81 | 1016.3 |
| 20260901101528 | 72 | 53 | 0.0 | 2.0 | 0.00 | 0.67 | 0.00 | 81 | 1016.3 |
| 20260901101010 | 72 | 53 | 0.0 | 5.0 | 0.00 | 0.67 | 0.00 | 81 | 1016.3 |
| 20260901100516 | 72 | 53 | 0.0 | 5.0 | 0.00 | 0.67 | 0.00 | 81 | 1016.3 |
| 20260901100023 | 72 | 53 | 1.0 | 5.0 | 0.00 | 0.67 | 0.00 | 81 | 1016.2 |
| 20260901095503 | 72 | 56 | 0.0 | 1.0 | 0.00 | 0.67 | 0.00 | 81 | 1016.2 |
| 20260901095016 | 72 | 56 | 0.0 | 3.0 | 0.00 | 0.67 | 0.00 | 81 | 1016.2 |
| 20260901094526 | 72 | 56 | 0.0 | 4.0 | 0.00 | 0.67 | 0.00 | 81 | 1016.2 |
| 20260901094006 | 72 | 55 | 0.0 | 4.0 | 0.00 | 0.67 | 0.00 | 81 | 1016.2 |
| 20260901093513 | 72 | 55 | 0.0 | 3.0 | 0.00 | 0.67 | 0.00 | 81 | 1016.2 |
| 20260901093025 | 72 | 54 | 0.0 | 3.0 | 0.00 | 0.67 | 0.00 | 81 | 1016.2 |
| 20260901092506 | 72 | 53 | 0.0 | 4.0 | 0.00 | 0.67 | 0.00 | 81 | 1016.2 |
| 20260901092017 | 72 | 53 | 0.0 | 4.0 | 0.00 | 0.67 | 0.00 | 81 | 1016.1 |
| 20260901091527 | 72 | 53 | 1.0 | 4.0 | 0.00 | 0.67 | 0.00 | 82 | 1016.2 |
| 20260901091006 | 73 | 52 | 0.0 | 4.0 | 0.00 | 0.67 | 0.00 | 81 | 1016.2 |
| 20260901090522 | 73 | 54 | 0.0 | 4.0 | 0.00 | 0.67 | 0.00 | 81 | 1016.3 |
| 20260901090026 | 73 | 54 | 1.0 | 4.0 | 0.00 | 0.67 | 0.00 | 81 | 1016.3 |
| 20260901085503 | 73 | 58 | 1.0 | 5.0 | 0.00 | 0.67 | 0.00 | 82 | 1016.3 |
| 20260901085014 | 73 | 63 | 0.0 | 5.0 | 0.00 | 0.67 | 0.00 | 82 | 1016.3 |
| 20260901084524 | 72 | 65 | 2.0 | 4.0 | 0.00 | 0.67 | 0.00 | 82 | 1016.2 |
| 20260901084005 | 73 | 73 | 1.0 | 4.0 | 0.00 | 0.67 | 0.00 | 82 | 1016.2 |
| 20260901083517 | 73 | 79 | 1.0 | 3.0 | 0.00 | 0.67 | 0.00 | 82 | 1016.3 |
| 20260901083027 | 73 | 80 | 0.0 | 4.0 | 0.00 | 0.67 | 0.00 | 82 | 1016.4 |
| 20260901082506 | 73 | 81 | 0.0 | 4.0 | 0.00 | 0.67 | 0.00 | 82 | 1016.4 |
| 20260901082015 | 73 | 82 | 1.0 | 4.0 | 0.00 | 0.67 | 0.00 | 82 | 1016.3 |
| 20260901081524 | 73 | 84 | 0.0 | 3.0 | 0.00 | 0.67 | 0.00 | 82 | 1016.3 |
| 20260901081006 | 73 | 85 | 0.0 | 3.0 | 0.00 | 0.67 | 0.00 | 82 | 1016.3 |
| 20260901080515 | 73 | 88 | 1.0 | 3.0 | 0.00 | 0.67 | 0.00 | 82 | 1016.3 |
| 20260901080023 | 73 | 89 | 0.0 | 2.0 | 0.00 | 0.67 | 0.00 | 82 | 1016.2 |
| 20260901075504 | 73 | 90 | 0.0 | 1.0 | 0.00 | 0.67 | 0.00 | 82 | 1016.4 |
| 20260901075016 | 73 | 90 | 0.0 | 2.0 | 0.00 | 0.67 | 0.00 | 81 | 1016.4 |
| 20260901074526 | 73 | 90 | 0.0 | 2.0 | 0.00 | 0.67 | 0.00 | 81 | 1016.5 |
| 20260901074009 | 73 | 90 | 0.0 | 1.0 | 0.00 | 0.67 | 0.00 | 81 | 1016.5 |
| 20260901073514 | 74 | 90 | 0.0 | 1.0 | 0.00 | 0.67 | 0.00 | 80 | 1016.5 |
| 20260901073027 | 74 | 90 | 0.0 | 0.0 | 0.00 | 0.67 | 0.00 | 79 | 1016.5 |
| 20260901072505 | 74 | 91 | 0.0 | 0.0 | 0.00 | 0.67 | 0.00 | 79 | 1016.5 |
| 20260901072019 | 74 | 91 | 0.0 | 1.0 | 0.00 | 0.67 | 0.00 | 78 | 1016.5 |
| 20260901071527 | 74 | 91 | 0.0 | 1.0 | 0.00 | 0.67 | 0.00 | 78 | 1016.4 |
| 20260901071005 | 75 | 91 | 0.0 | 2.0 | 0.00 | 0.67 | 0.00 | 77 | 1016.5 |
| 20260901070515 | 75 | 91 | 0.0 | 2.0 | 0.00 | 0.67 | 0.00 | 76 | 1016.4 |
| 20260901070024 | 75 | 91 | 0.0 | 2.0 | 0.00 | 0.67 | 0.00 | 76 | 1016.5 |
| 20260901065514 | 75 | 92 | 0.0 | 2.0 | 0.00 | 0.67 | 0.67 | 76 | 1016.4 |
| 20260901065019 | 75 | 92 | 0.0 | 2.0 | 0.00 | 0.67 | 0.67 | 76 | 1016.5 |
| 20260901064535 | 75 | 92 | 0.0 | 2.0 | 0.00 | 0.67 | 0.67 | 76 | 1016.5 |
| 20260901064019 | 75 | 91 | 0.0 | 1.0 | 0.00 | 0.67 | 0.67 | 76 | 1016.5 |
| 20260901063516 | 75 | 91 | 0.0 | 0.0 | 0.00 | 0.67 | 0.67 | 76 | 1016.5 |
| 20260901063031 | 75 | 91 | 0.0 | 0.0 | 0.00 | 0.67 | 0.67 | 75 | 1016.6 |
| 20260901062519 | 75 | 91 | 0.0 | 0.0 | 0.00 | 0.67 | 0.67 | 75 | 1016.7 |
| 20260901062013 | 75 | 91 | 0.0 | 0.0 | 0.00 | 0.67 | 0.67 | 75 | 1016.7 |
| 20260901061524 | 75 | 91 | 0.0 | 0.0 | 0.00 | 0.67 | 0.67 | 75 | 1016.8 |
| 20260901061018 | 75 | 91 | 0.0 | 0.0 | 0.00 | 0.67 | 0.67 | 74 | 1016.8 |
| 20260901060513 | 75 | 91 | 0.0 | 1.0 | 0.00 | 0.67 | 0.67 | 75 | 1016.7 |
| 20260901060024 | 75 | 91 | 0.0 | 2.0 | 0.00 | 0.67 | 0.67 | 75 | 1016.6 |
| 20260901055516 | 75 | 91 | 0.0 | 2.0 | 0.00 | 0.67 | 0.67 | 75 | 1016.6 |
| 20260901055014 | 76 | 91 | 0.0 | 1.0 | 0.00 | 0.67 | 0.67 | 75 | 1016.7 |
| 20260901054525 | 76 | 91 | 0.0 | 1.0 | 0.00 | 0.67 | 0.67 | 75 | 1016.7 |
| 20260901054021 | 76 | 91 | 0.0 | 1.0 | 0.00 | 0.67 | 0.67 | 74 | 1016.6 |
| 20260901053516 | 76 | 91 | 0.0 | 3.0 | 0.00 | 0.67 | 0.67 | 73 | 1016.5 |
| 20260901053024 | 76 | 91 | 0.0 | 3.0 | 0.00 | 0.67 | 0.67 | 73 | 1016.4 |
| 20260901052518 | 76 | 90 | 0.0 | 3.0 | 0.00 | 0.67 | 0.67 | 73 | 1016.4 |
| 20260901052013 | 76 | 89 | 0.0 | 3.0 | 0.00 | 0.67 | 0.67 | 72 | 1016.4 |
| 20260901051528 | 76 | 88 | 0.0 | 4.0 | 0.00 | 0.67 | 0.67 | 72 | 1016.4 |
| 20260901051014 | 76 | 85 | 1.0 | 4.0 | 0.00 | 0.67 | 0.67 | 72 | 1016.4 |
| 20260901050517 | 76 | 71 | 1.0 | 4.0 | 0.00 | 0.67 | 0.67 | 72 | 1016.5 |
| 20260901050023 | 77 | 67 | 0.0 | 6.0 | 0.00 | 0.67 | 0.67 | 71 | 1016.6 |
| 20260901045522 | 77 | 58 | 2.0 | 8.0 | 0.00 | 0.67 | 0.67 | 71 | 1016.6 |
| 20260901045014 | 76 | 55 | 3.0 | 8.0 | 0.00 | 0.67 | 0.67 | 72 | 1016.7 |
| 20260901044523 | 76 | 44 | 3.0 | 6.0 | 0.00 | 0.67 | 0.67 | 72 | 1016.8 |
| 20260901044019 | 76 | 63 | 2.0 | 6.0 | 0.00 | 0.67 | 0.67 | 72 | 1016.7 |
| 20260901043517 | 76 | 65 | 2.0 | 6.0 | 0.00 | 0.67 | 0.67 | 72 | 1016.7 |
| 20260901043026 | 76 | 63 | 1.0 | 6.0 | 0.00 | 0.67 | 0.67 | 72 | 1016.7 |
| 20260901042520 | 76 | 41 | 1.0 | 6.0 | 0.00 | 0.67 | 0.67 | 72 | 1016.6 |
| 20260901042016 | 76 | 77 | 1.0 | 5.0 | 0.00 | 0.67 | 0.67 | 72 | 1016.5 |
| 20260901041527 | 76 | 85 | 0.0 | 6.0 | 0.00 | 0.67 | 0.67 | 72 | 1016.4 |
| 20260901041017 | 76 | 84 | 0.0 | 6.0 | 0.00 | 0.67 | 0.67 | 72 | 1016.5 |
| 20260901040512 | 76 | 65 | 1.0 | 4.0 | 0.00 | 0.67 | 0.67 | 72 | 1016.5 |
| 20260901040035 | 76 | 84 | 0.0 | 4.0 | 0.00 | 0.67 | 0.67 | 71 | 1016.5 |
| 20260901035517 | 76 | 82 | 0.0 | 4.0 | 0.00 | 0.67 | 0.67 | 71 | 1016.5 |
| 20260901035016 | 76 | 67 | 0.0 | 3.0 | 0.00 | 0.67 | 0.67 | 71 | 1016.4 |
| 20260901034523 | 76 | 63 | 0.0 | 2.0 | 0.00 | 0.67 | 0.67 | 71 | 1016.3 |
| 20260901034018 | 76 | 62 | 0.0 | 4.0 | 0.00 | 0.67 | 0.67 | 71 | 1016.3 |
| 20260901033513 | 76 | 60 | 0.0 | 4.0 | 0.00 | 0.67 | 0.67 | 71 | 1016.3 |
| 20260901033032 | 76 | 32 | 0.0 | 3.0 | 0.00 | 0.67 | 0.67 | 71 | 1016.3 |
| 20260901032506 | 76 | 15 | 0.0 | 4.0 | 0.00 | 0.67 | 0.67 | 71 | 1016.2 |
| 20260901032004 | 76 | 15 | 1.0 | 4.0 | 0.00 | 0.67 | 0.67 | 71 | 1016.1 |
| 20260901031507 | 76 | 350 | 0.0 | 2.0 | 0.00 | 0.67 | 0.67 | 71 | 1016.0 |
| 20260901031003 | 76 | 350 | 0.0 | 2.0 | 0.00 | 0.67 | 0.67 | 71 | 1016.1 |
| 20260901030503 | 77 | 349 | 0.0 | 2.0 | 0.00 | 0.67 | 0.67 | 71 | 1016.1 |
| 20260901030004 | 77 | 349 | 0.0 | 2.0 | 0.00 | 0.67 | 0.67 | 71 | 1016.1 |
| 20260901025507 | 77 | 348 | 0.0 | 2.0 | 0.00 | 0.67 | 0.67 | 71 | 1015.9 |
| 20260901025004 | 77 | 347 | 0.0 | 2.0 | 0.00 | 0.67 | 0.67 | 71 | 1015.9 |
| 20260901024505 | 77 | 347 | 0.0 | 2.0 | 0.00 | 0.67 | 0.67 | 72 | 1015.7 |
| 20260901024006 | 77 | 345 | 0.0 | 2.0 | 0.00 | 0.67 | 0.67 | 71 | 1015.5 |
| 20260901023503 | 77 | 342 | 0.0 | 2.0 | 0.00 | 0.67 | 0.67 | 71 | 1015.4 |
| 20260901023004 | 77 | 340 | 0.0 | 2.0 | 0.00 | 0.67 | 0.67 | 71 | 1015.4 |
| 20260901022505 | 77 | 337 | 0.0 | 0.0 | 0.00 | 0.67 | 0.67 | 72 | 1015.4 |
| 20260901022003 | 77 | 337 | 0.0 | 1.0 | 0.00 | 0.67 | 0.67 | 72 | 1015.4 |
| 20260901021504 | 77 | 337 | 0.0 | 3.0 | 0.00 | 0.67 | 0.67 | 72 | 1015.2 |
| 20260901021002 | 77 | 337 | 0.0 | 3.0 | 0.00 | 0.67 | 0.67 | 72 | 1015.1 |
| 20260901020503 | 77 | 335 | 0.0 | 2.0 | 0.00 | 0.67 | 0.67 | 73 | 1015.1 |
| 20260901020004 | 78 | 332 | 0.0 | 0.0 | 0.00 | 0.67 | 0.67 | 74 | 1015.1 |
| 20260901015503 | 78 | 332 | 0.0 | 0.0 | 0.00 | 0.67 | 0.67 | 74 | 1014.8 |
| 20260901015004 | 78 | 360 | 0.0 | 0.0 | 0.00 | 0.67 | 0.67 | 74 | 1015.0 |
| 20260901014504 | 78 | 360 | 0.0 | 0.0 | 0.00 | 0.67 | 0.67 | 72 | 1014.9 |
| 20260901014004 | 78 | 330 | 0.0 | 0.0 | 0.00 | 0.67 | 0.67 | 72 | 1014.9 |
| 20260901013504 | 78 | 331 | 0.0 | 0.0 | 0.00 | 0.67 | 0.67 | 71 | 1014.7 |
| 20260901013008 | 78 | 331 | 0.0 | 0.0 | 0.00 | 0.67 | 0.67 | 71 | 1014.6 |
| 20260901012509 | 78 | 331 | 0.0 | 1.0 | 0.00 | 0.67 | 0.67 | 70 | 1014.5 |
| 20260901012003 | 79 | 331 | 0.0 | 1.0 | 0.00 | 0.67 | 0.67 | 69 | 1014.4 |
| 20260901011508 | 79 | 360 | 0.0 | 1.0 | 0.00 | 0.67 | 0.67 | 69 | 1014.4 |
| 20260901011004 | 79 | 360 | 0.0 | 2.0 | 0.00 | 0.67 | 0.67 | 68 | 1014.5 |
| 20260901010504 | 79 | 360 | 0.0 | 2.0 | 0.00 | 0.67 | 0.67 | 68 | 1014.5 |
| 20260901010007 | 80 | 360 | 0.0 | 0.0 | 0.00 | 0.67 | 0.67 | 68 | 1014.5 |
| 20260901005503 | 80 | 332 | 0.0 | 0.0 | 0.00 | 0.67 | 0.67 | 67 | 1014.5 |
| 20260901005003 | 80 | 334 | 0.0 | 1.0 | 0.00 | 0.67 | 0.67 | 67 | 1014.5 |
| 20260901004527 | 80 | 360 | 0.0 | 1.0 | 0.00 | 0.67 | 0.67 | 67 | 1014.4 |
| 20260901004002 | 80 | 360 | 0.0 | 0.0 | 0.00 | 0.67 | 0.67 | 67 | 1014.4 |
| 20260901003504 | 80 | 360 | 0.0 | 0.0 | 0.00 | 0.67 | 0.67 | 65 | 1014.4 |
| 20260901003008 | 80 | 80 | 0.0 | 3.0 | 0.00 | 0.67 | 0.67 | 64 | 1014.6 |
| 20260901002504 | 80 | 80 | 0.0 | 3.0 | 0.00 | 0.67 | 0.67 | 65 | 1014.5 |
| 20260901002004 | 80 | 360 | 1.0 | 3.0 | 0.00 | 0.67 | 0.67 | 64 | 1014.6 |
| 20260901001519 | 80 | 77 | 0.0 | 3.0 | 0.00 | 0.67 | 0.67 | 65 | 1014.6 |
| 20260901001003 | 80 | 70 | 0.0 | 3.0 | 0.00 | 0.67 | 0.67 | 65 | 1014.7 |
| 20260901000504 | 81 | 72 | 0.0 | 4.0 | 0.00 | 0.67 | 0.67 | 64 | 1014.6 |
| 20260901000013 | 81 | 69 | 1.0 | 4.0 | 0.00 | 0.67 | 0.67 | 65 | 1014.7 |
| 20260831235504 | 81 | 10 | 0.0 | 4.0 | 0.00 | 0.67 | 0.67 | 66 | 1014.7 |
| 20260831235007 | 81 | 7 | 0.0 | 4.0 | 0.00 | 0.67 | 0.67 | 66 | 1014.7 |
| 20260831234511 | 81 | 6 | 1.0 | 5.0 | 0.00 | 0.67 | 0.67 | 65 | 1014.8 |
| 20260831234004 | 80 | 4 | 2.0 | 6.0 | 0.00 | 0.67 | 0.67 | 65 | 1014.8 |
| 20260831233504 | 80 | 4 | 1.0 | 6.0 | 0.00 | 0.67 | 0.67 | 67 | 1014.8 |
| 20260831233008 | 80 | 4 | 1.0 | 8.0 | 0.00 | 0.67 | 0.67 | 66 | 1014.7 |
| 20260831232503 | 80 | 103 | 3.0 | 8.0 | 0.00 | 0.67 | 0.67 | 65 | 1014.7 |
| 20260831232004 | 80 | 78 | 3.0 | 7.0 | 0.00 | 0.67 | 0.67 | 65 | 1014.9 |
| 20260831231507 | 80 | 100 | 3.0 | 6.0 | 0.00 | 0.67 | 0.67 | 65 | 1015.0 |
| 20260831231004 | 80 | 84 | 3.0 | 6.0 | 0.00 | 0.67 | 0.67 | 66 | 1014.9 |
| 20260831230503 | 80 | 83 | 2.0 | 9.0 | 0.00 | 0.67 | 0.67 | 67 | 1015.0 |
| 20260831230010 | 80 | 68 | 3.0 | 9.0 | 0.00 | 0.67 | 0.67 | 66 | 1015.0 |
| 20260831225504 | 80 | 98 | 4.0 | 9.0 | 0.00 | 0.67 | 0.67 | 66 | 1015.1 |
| 20260831225004 | 80 | 63 | 4.0 | 12.0 | 0.00 | 0.67 | 0.67 | 68 | 1015.1 |
| 20260831224510 | 79 | 42 | 4.0 | 12.0 | 0.00 | 0.67 | 0.67 | 67 | 1015.1 |
| 20260831224006 | 80 | 98 | 5.0 | 10.0 | 0.00 | 0.67 | 0.67 | 67 | 1015.2 |
| 20260831223506 | 80 | 107 | 3.0 | 8.0 | 0.00 | 0.67 | 0.67 | 68 | 1015.4 |
| 20260831223008 | 80 | 89 | 2.0 | 6.0 | 0.00 | 0.67 | 0.67 | 70 | 1015.4 |
| 20260831222506 | 79 | 77 | 1.0 | 6.0 | 0.00 | 0.67 | 0.67 | 71 | 1015.5 |
| 20260831222004 | 79 | 82 | 0.0 | 6.0 | 0.00 | 0.67 | 0.67 | 72 | 1015.4 |
| 20260831221526 | 80 | 80 | 2.0 | 5.0 | 0.00 | 0.67 | 0.67 | 73 | 1015.6 |
| 20260831221004 | 80 | 66 | 0.0 | 5.0 | 0.00 | 0.67 | 0.67 | 75 | 1015.9 |
| 20260831220507 | 79 | 65 | 0.0 | 5.0 | 0.00 | 0.67 | 0.67 | 75 | 1015.9 |
| 20260831220035 | 78 | 69 | 1.0 | 5.0 | 0.00 | 0.67 | 0.67 | 76 | 1016.1 |
| 20260831215504 | 78 | 72 | 0.0 | 5.0 | 0.01 | 0.67 | 0.67 | 78 | 1016.3 |
| 20260831215005 | 77 | 70 | 1.0 | 6.0 | 0.01 | 0.67 | 0.67 | 81 | 1016.3 |
| 20260831214532 | 75 | 360 | 2.0 | 6.0 | 0.01 | 0.67 | 0.67 | 89 | 1016.4 |
| 20260831214004 | 74 | 105 | 2.0 | 6.0 | 0.01 | 0.67 | 0.67 | 92 | 1016.4 |
| 20260831213504 | 73 | 10 | 1.0 | 3.0 | 0.02 | 0.67 | 0.67 | 94 | 1016.6 |
| 20260831213010 | 72 | 360 | 0.0 | 6.0 | 0.02 | 0.67 | 0.67 | 94 | 1016.7 |
| 20260831212506 | 71 | 360 | 2.0 | 6.0 | 0.03 | 0.67 | 0.67 | 94 | 1016.8 |
| 20260831212005 | 70 | 360 | 0.0 | 4.0 | 0.04 | 0.67 | 0.67 | 94 | 1017.0 |
| 20260831211513 | 70 | 360 | 1.0 | 6.0 | 0.05 | 0.67 | 0.67 | 94 | 1017.1 |
| 20260831211003 | 70 | 360 | 1.0 | 6.0 | 0.05 | 0.67 | 0.67 | 94 | 1017.2 |
| 20260831210503 | 70 | 360 | 1.0 | 6.0 | 0.05 | 0.67 | 0.67 | 94 | 1017.4 |
| 20260831210011 | 70 | 360 | 1.0 | 10.0 | 0.06 | 0.67 | 0.67 | 94 | 1017.6 |
| 20260831205507 | 70 | 360 | 3.0 | 10.0 | 0.05 | 0.66 | 0.66 | 94 | 1017.6 |
| 20260831205007 | 69 | 4 | 5.0 | 13.0 | 0.07 | 0.66 | 0.66 | 94 | 1017.5 |
| 20260831204511 | 69 | 4 | 5.0 | 13.0 | 0.09 | 0.66 | 0.66 | 94 | 1017.6 |
| 20260831204006 | 69 | 3 | 2.0 | 7.0 | 0.10 | 0.66 | 0.66 | 94 | 1018.0 |
| 20260831203505 | 69 | 4 | 2.0 | 7.0 | 0.09 | 0.65 | 0.65 | 94 | 1018.4 |
| 20260831203014 | 69 | 4 | 0.0 | 6.0 | 0.10 | 0.65 | 0.65 | 94 | 1018.7 |
| 20260831202508 | 69 | 4 | 2.0 | 9.0 | 0.10 | 0.64 | 0.64 | 94 | 1018.7 |
| 20260831202006 | 69 | 3 | 3.0 | 11.0 | 0.10 | 0.63 | 0.63 | 94 | 1018.8 |
| 20260831201526 | 69 | 3 | 1.0 | 11.0 | 0.10 | 0.62 | 0.62 | 93 | 1019.2 |
| 20260831201003 | 69 | 3 | 5.0 | 10.0 | 0.10 | 0.62 | 0.62 | 93 | 1019.1 |
| 20260831200507 | 69 | 4 | 4.0 | 9.0 | 0.11 | 0.62 | 0.62 | 93 | 1019.3 |
| 20260831200030 | 69 | 4 | 2.0 | 5.0 | 0.10 | 0.61 | 0.61 | 93 | 1019.5 |
| 20260831195506 | 69 | 4 | 2.0 | 5.0 | 0.12 | 0.61 | 0.61 | 93 | 1019.5 |
| 20260831195012 | 69 | 4 | 0.0 | 2.0 | 0.10 | 0.58 | 0.58 | 93 | 1019.8 |
| 20260831194514 | 69 | 4 | 0.0 | 2.0 | 0.09 | 0.57 | 0.57 | 93 | 1020.0 |
| 20260831194008 | 69 | 4 | 0.0 | 3.0 | 0.09 | 0.56 | 0.56 | 93 | 1020.1 |
| 20260831193508 | 69 | 4 | 0.0 | 5.0 | 0.09 | 0.56 | 0.56 | 93 | 1019.9 |
| 20260831193014 | 69 | 4 | 1.0 | 4.0 | 0.09 | 0.55 | 0.55 | 93 | 1020.0 |
| 20260831192512 | 69 | 4 | 1.0 | 4.0 | 0.11 | 0.54 | 0.54 | 93 | 1020.0 |
| 20260831192007 | 69 | 4 | 1.0 | 4.0 | 0.12 | 0.52 | 0.52 | 93 | 1020.0 |
| 20260831191515 | 69 | 8 | 0.0 | 2.0 | 0.13 | 0.52 | 0.52 | 93 | 1020.0 |
| 20260831191006 | 69 | 8 | 0.0 | 2.0 | 0.14 | 0.52 | 0.52 | 93 | 1019.9 |
| 20260831190509 | 69 | 8 | 0.0 | 3.0 | 0.18 | 0.51 | 0.51 | 93 | 1020.0 |
| 20260831190016 | 69 | 8 | 0.0 | 3.0 | 0.18 | 0.51 | 0.51 | 93 | 1020.1 |
| 20260831185508 | 69 | 8 | 0.0 | 3.0 | 0.16 | 0.49 | 0.49 | 93 | 1020.1 |
| 20260831185009 | 68 | 8 | 1.0 | 3.0 | 0.17 | 0.49 | 0.49 | 93 | 1020.2 |
| 20260831184522 | 68 | 8 | 0.0 | 3.0 | 0.16 | 0.48 | 0.48 | 93 | 1020.1 |
| 20260831184007 | 68 | 360 | 0.0 | 4.0 | 0.15 | 0.47 | 0.47 | 92 | 1020.1 |
| 20260831183507 | 68 | 9 | 0.0 | 4.0 | 0.18 | 0.47 | 0.47 | 92 | 1020.1 |
| 20260831183030 | 68 | 8 | 2.0 | 7.0 | 0.23 | 0.46 | 0.46 | 92 | 1020.3 |
| 20260831182505 | 68 | 8 | 3.0 | 7.0 | 0.22 | 0.43 | 0.43 | 91 | 1020.2 |
| 20260831182007 | 68 | 8 | 4.0 | 9.0 | 0.23 | 0.41 | 0.41 | 92 | 1020.5 |
| 20260831181519 | 68 | 7 | 3.0 | 13.0 | 0.23 | 0.39 | 0.39 | 92 | 1020.6 |
| 20260831181005 | 68 | 8 | 6.0 | 15.0 | 0.23 | 0.38 | 0.38 | 91 | 1020.1 |
| 20260831180508 | 68 | 8 | 10.0 | 15.0 | 0.18 | 0.33 | 0.33 | 91 | 1019.8 |
| 20260831180019 | 68 | 8 | 4.0 | 10.0 | 0.18 | 0.33 | 0.33 | 91 | 1020.1 |
| 20260831175505 | 68 | 8 | 3.0 | 10.0 | 0.19 | 0.33 | 0.33 | 90 | 1020.3 |
| 20260831175008 | 68 | 11 | 5.0 | 16.0 | 0.18 | 0.32 | 0.32 | 90 | 1020.0 |
| 20260831174522 | 69 | 9 | 5.0 | 16.0 | 0.18 | 0.32 | 0.32 | 89 | 1019.7 |
| 20260831174006 | 69 | 8 | 9.0 | 15.0 | 0.18 | 0.32 | 0.32 | 89 | 1019.7 |
| 20260831173508 | 69 | 8 | 8.0 | 14.0 | 0.15 | 0.29 | 0.29 | 88 | 1019.8 |
| 20260831173019 | 70 | 7 | 5.0 | 13.0 | 0.09 | 0.23 | 0.23 | 86 | 1020.0 |
| 20260831172503 | 70 | 8 | 6.0 | 13.0 | 0.07 | 0.21 | 0.21 | 85 | 1020.0 |
| 20260831172010 | 71 | 360 | 3.0 | 13.0 | 0.04 | 0.18 | 0.18 | 84 | 1019.6 |
| 20260831171520 | 72 | 360 | 8.0 | 14.0 | 0.02 | 0.16 | 0.16 | 82 | 1019.6 |
| 20260831171005 | 72 | 360 | 7.0 | 16.0 | 0.01 | 0.15 | 0.15 | 81 | 1019.8 |
| 20260831170508 | 73 | 8 | 6.0 | 16.0 | 0.01 | 0.15 | 0.15 | 79 | 1019.6 |
| 20260831170024 | 74 | 8 | 11.0 | 16.0 | 0.01 | 0.15 | 0.15 | 78 | 1019.2 |
| 20260831165504 | 75 | 8 | 5.0 | 14.0 | 0.00 | 0.14 | 0.14 | 77 | 1019.1 |
| 20260831165009 | 76 | 8 | 6.0 | 14.0 | 0.00 | 0.14 | 0.14 | 75 | 1019.1 |
| 20260831164519 | 77 | 8 | 7.0 | 14.0 | 0.00 | 0.14 | 0.14 | 71 | 1019.0 |
| 20260831164007 | 77 | 8 | 3.0 | 11.0 | 0.00 | 0.14 | 0.14 | 70 | 1018.9 |
| 20260831163509 | 77 | 8 | 2.0 | 4.0 | 0.00 | 0.14 | 0.14 | 72 | 1018.8 |
| 20260831163037 | 77 | 8 | 0.0 | 7.0 | 0.00 | 0.14 | 0.14 | 73 | 1018.6 |
| 20260831162510 | 77 | 8 | 1.0 | 7.0 | 0.00 | 0.14 | 0.14 | 73 | 1018.5 |
| 20260831162011 | 77 | 8 | 3.0 | 6.0 | 0.00 | 0.14 | 0.14 | 73 | 1018.3 |
| 20260831161520 | 77 | 8 | 2.0 | 8.0 | 0.00 | 0.14 | 0.14 | 74 | 1018.1 |
| 20260831161005 | 78 | 8 | 1.0 | 8.0 | 0.00 | 0.14 | 0.14 | 73 | 1018.2 |
| 20260831160511 | 78 | 13 | 1.0 | 3.0 | 0.00 | 0.14 | 0.14 | 73 | 1018.1 |
| 20260831160036 | 78 | 3 | 0.0 | 2.0 | 0.00 | 0.14 | 0.14 | 73 | 1018.0 |
| 20260831155505 | 78 | 3 | 0.0 | 5.0 | 0.00 | 0.14 | 0.14 | 73 | 1018.0 |
| 20260831155010 | 78 | 3 | 0.0 | 5.0 | 0.00 | 0.14 | 0.14 | 74 | 1017.8 |
| 20260831154552 | 78 | 4 | 3.0 | 8.0 | 0.00 | 0.14 | 0.14 | 74 | 1017.7 |
| 20260831154012 | 78 | 4 | 2.0 | 8.0 | 0.00 | 0.14 | 0.14 | 75 | 1017.6 |
| 20260831153512 | 77 | 8 | 1.0 | 5.0 | 0.00 | 0.14 | 0.14 | 77 | 1017.5 |
| 20260831153024 | 77 | 1 | 1.0 | 5.0 | 0.00 | 0.14 | 0.14 | 78 | 1017.5 |
| 20260831152508 | 76 | 5 | 0.0 | 3.0 | 0.00 | 0.14 | 0.14 | 78 | 1017.6 |
| 20260831152012 | 76 | 3 | 0.0 | 3.0 | 0.00 | 0.14 | 0.14 | 78 | 1017.6 |
| 20260831151524 | 75 | 3 | 0.0 | 3.0 | 0.00 | 0.14 | 0.14 | 79 | 1017.5 |
| 20260831151011 | 75 | 3 | 0.0 | 3.0 | 0.00 | 0.14 | 0.14 | 80 | 1017.3 |
| 20260831150517 | 75 | 3 | 0.0 | 3.0 | 0.00 | 0.14 | 0.14 | 81 | 1017.3 |
| 20260831150027 | 75 | 3 | 1.0 | 3.0 | 0.00 | 0.14 | 0.14 | 81 | 1017.3 |
| 20260831145508 | 75 | 3 | 1.0 | 4.0 | 0.00 | 0.14 | 0.14 | 82 | 1017.1 |
| 20260831145011 | 74 | 3 | 2.0 | 4.0 | 0.00 | 0.14 | 0.14 | 83 | 1017.0 |
| 20260831144525 | 74 | 360 | 0.0 | 4.0 | 0.00 | 0.14 | 0.14 | 84 | 1017.0 |
| 20260831144004 | 73 | 360 | 0.0 | 4.0 | 0.00 | 0.14 | 0.14 | 84 | 1016.8 |
| 20260831143512 | 73 | 7 | 0.0 | 6.0 | 0.00 | 0.14 | 0.14 | 84 | 1016.8 |
| 20260831143024 | 73 | 360 | 3.0 | 8.0 | 0.00 | 0.14 | 0.14 | 84 | 1016.6 |
| 20260831142506 | 73 | 4 | 3.0 | 7.0 | 0.00 | 0.14 | 0.14 | 84 | 1016.6 |
| 20260831142018 | 73 | 3 | 2.0 | 7.0 | 0.00 | 0.14 | 0.14 | 84 | 1016.6 |
| 20260831141528 | 73 | 360 | 3.0 | 7.0 | 0.00 | 0.14 | 0.14 | 83 | 1016.7 |
| 20260831141012 | 73 | 11 | 1.0 | 8.0 | 0.00 | 0.14 | 0.14 | 82 | 1016.7 |
| 20260831140513 | 73 | 360 | 3.0 | 8.0 | 0.00 | 0.14 | 0.14 | 81 | 1016.6 |
| 20260831140033 | 74 | 360 | 3.0 | 11.0 | 0.00 | 0.14 | 0.14 | 79 | 1016.4 |
| 20260831135512 | 74 | 360 | 4.0 | 13.0 | 0.00 | 0.14 | 0.14 | 77 | 1016.4 |
| 20260831135013 | 74 | 360 | 4.0 | 14.0 | 0.01 | 0.14 | 0.14 | 74 | 1016.3 |
| 20260831134520 | 74 | 360 | 6.0 | 14.0 | 0.01 | 0.14 | 0.14 | 75 | 1016.1 |